Theta_e
320 318 319 320 319 316 321 323 319 320 320 339 345 346 347 346 350 355 348 348 343 340 339 337 336 337 338 338 337 337 336 336 335 335 334 332 332 332 333 334 336 338 335 337 337 337 338 338 339
319 319 319 314 319 320 319 320 318 320 321 342 342 344 346 347 342 343 349 344 340 340 339 337 336 336 337 337 337 337 337 337 336 336 335 333 333 333 333 333 334 336 336 335 335 337 338 338 337
319 318 315 317 316 321 320 320 317 318 323 323 336 336 342 343 340 346 349 347 343 341 339 338 336 336 337 337 338 338 338 338 337 339 337 335 334 333 334 334 334 334 337 338 337 337 337 338 336
319 314 314 318 321 319 320 319 319 320 327 335 333 331 326 336 339 352 352 351 349 347 348 343 338 337 336 336 337 337 338 338 338 339 340 338 336 335 334 335 335 335 336 339 340 338 338 338 337
318 311 317 319 321 321 320 320 320 321 330 328 328 324 324 333 349 350 349 347 347 345 343 343 339 339 337 336 336 337 337 338 338 339 339 340 339 338 337 336 336 336 337 339 343 342 341 338 338
315 312 318 320 321 320 320 320 321 325 326 323 322 321 320 328 338 342 349 350 349 345 343 342 341 341 340 339 338 337 336 336 336 337 338 340 341 341 339 338 337 337 338 338 341 343 343 342 341
316 316 319 320 320 322 323 320 320 320 320 321 321 321 320 318 330 340 346 347 348 348 347 346 346 345 342 341 341 340 339 338 337 336 336 338 339 340 341 340 339 338 338 339 339 341 342 342 342
311 314 318 317 318 321 321 321 319 320 320 319 319 320 319 320 333 333 331 329 331 333 337 339 343 347 348 349 344 341 341 341 340 339 338 337 336 338 338 339 339 340 339 339 340 340 340 340 340
312 312 312 316 321 322 318 321 321 319 319 319 317 317 319 323 327 326 324 322 321 320 320 322 329 337 342 345 349 347 343 342 342 341 341 340 339 338 338 337 338 338 338 339 338 339 339 338 338
312 310 313 313 319 318 315 318 321 320 318 319 320 320 321 321 322 320 319 318 316 316 316 318 324 329 334 339 344 346 344 342 340 342 344 344 344 344 344 344 343 343 343 341 340 339 339 338 337
312 313 312 317 318 316 315 315 314 318 319 319 321 320 319 319 318 318 317 315 314 313 314 316 322 326 328 332 338 340 340 332 333 335 338 340 342 340 341 341 340 339 339 339 340 339 339 338 337
315 313 314 316 316 316 316 314 315 317 318 318 318 318 318 318 316 316 314 313 313 312 312 314 320 322 325 326 331 334 335 334 331 329 329 331 331 330 332 333 332 333 333 334 333 334 335 336 338
315 314 314 315 314 314 315 315 315 316 316 317 318 318 317 315 314 314 314 313 313 312 312 312 316 319 322 321 322 323 324 323 320 321 321 321 322 324 325 327 328 327 327 327 329 331 333 335 335
313 316 314 314 315 315 315 315 314 315 314 319 317 316 315 314 313 312 313 312 312 311 310 310 311 314 318 318 319 317 317 314 313 312 313 315 315 316 320 320 317 320 321 326 327 329 331 333 333
315 316 315 315 314 315 314 314 315 314 316 319 317 315 314 313 312 311 312 311 311 309 308 308 308 310 316 312 316 316 312 311 309 308 307 306 307 308 311 312 313 315 316 317 321 323 325 327 330
316 315 316 314 314 313 313 314 313 313 317 317 316 314 313 312 311 310 310 309 309 309 307 307 307 308 308 308 311 310 307 307 306 306 305 305 304 305 305 306 307 308 310 312 315 315 318 322 326
313 313 314 315 314 315 313 314 314 313 314 318 316 314 312 311 309 309 309 309 308 307 306 306 307 307 307 307 307 308 307 306 304 304 304 303 304 304 304 303 303 303 305 306 307 310 311 314 317
314 314 314 315 315 314 315 315 315 314 314 317 316 313 312 310 308 307 307 307 307 307 306 306 306 306 306 307 307 306 305 305 303 302 302 301 302 302 302 301 301 301 301 301 303 304 306 310 311
316 316 314 314 315 314 314 313 313 312 313 310 315 313 312 310 308 307 308 308 307 306 305 304 303 304 305 306 305 304 302 302 301 300 300 299 299 299 298 297 297 297 297 297 298 299 300 304 306
315 315 315 315 315 315 312 311 311 311 311 310 313 313 311 310 308 308 308 307 306 303 303 302 301 302 302 303 303 302 301 299 299 298 297 296 296 296 295 295 294 294 294 295 295 296 296 298 299
315 315 316 316 314 312 312 312 312 312 312 312 312 312 311 310 309 308 306 306 305 303 302 302 301 301 301 300 301 301 300 298 297 295 294 293 292 292 291 291 292 292 292 292 293 294 295 296 297
315 314 315 315 313 313 311 314 312 312 311 312 313 312 311 310 309 308 306 305 304 302 302 301 300 300 299 299 299 298 297 294 293 293 292 291 291 290 290 290 290 290 291 291 292 293 293 294 295
314 314 314 314 312 312 312 311 312 309 310 312 312 311 310 310 309 307 306 304 303 302 301 301 299 299 298 297 297 296 294 293 292 292 291 290 289 289 288 289 289 289 290 290 290 291 291 292 293
313 312 311 310 310 313 311 311 311 308 310 313 314 311 310 309 309 307 305 303 302 301 300 300 299 297 297 296 295 294 293 292 291 290 289 289 288 288 288 288 288 288 288 288 288 289 290 290 291
311 310 312 311 313 314 312 311 310 311 315 316 315 312 311 310 308 304 302 301 301 300 300 299 298 297 296 295 294 293 292 291 289 289 288 288 288 287 287 287 286 285 286 287 288 288 288 288 289
310 311 313 316 315 313 313 314 311 317 317 315 314 312 310 309 306 303 302 301 300 300 300 299 298 296 295 294 293 292 291 290 289 289 288 287 287 287 286 286 285 285 285 286 287 287 286 286 286
311 312 311 313 314 315 313 312 314 317 318 318 317 314 311 309 306 302 301 300 299 299 299 298 297 296 294 293 292 291 290 289 288 288 287 287 287 286 285 285 284 284 285 285 285 283 283 283 283
310 310 313 312 316 317 314 313 311 316 319 319 319 317 315 312 306 304 301 300 299 299 298 298 297 296 294 293 292 291 290 289 288 287 287 286 286 284 284 283 282 283 283 284 283 282 281 281 281
312 312 313 312 315 314 314 310 313 314 316 316 317 317 316 312 306 304 302 300 299 299 298 297 297 296 294 293 292 290 289 288 287 286 285 285 285 283 282 281 281 282 282 283 283 281 280 280 279
310 309 313 316 316 315 314 314 314 313 314 314 316 317 316 313 308 304 302 300 299 298 297 297 296 295 294 292 290 289 288 287 287 285 284 283 283 282 280 280 280 281 281 281 281 279 279 278 278
Wind_Speed
16 18 9 4 4 5 4 3 3 2 5 6 9 13 11 6 4 4 5 16 22 23 18 14 12 12 12 12 12 12 11 10 9 7 6 6 7 8 9 10 9 8 8 8 7 6 6 6 6
16 13 4 2 5 4 5 4 4 3 9 14 15 14 12 8 4 6 8 14 20 19 15 13 11 10 10 10 10 10 10 10 9 8 7 6 6 6 7 8 8 8 8 7 6 5 5 6 6
12 4 3 4 4 3 4 4 5 4 3 5 5 7 5 3 8 4 18 18 16 12 11 9 8 7 7 7 7 8 7 7 7 7 7 6 6 7 8 8 9 9 9 8 8 8 7 6 5
4 6 4 4 2 6 6 6 5 8 11 15 12 7 5 8 4 16 20 18 17 13 7 5 6 5 5 5 5 5 5 4 5 5 6 7 8 9 10 11 11 11 11 10 9 9 9 8 8
3 3 4 2 4 5 4 4 4 8 7 13 16 6 6 11 27 25 22 21 20 14 9 7 5 4 3 3 2 2 2 2 4 6 8 9 10 11 11 13 13 13 13 13 10 9 11 13 12
4 3 4 2 4 7 5 3 3 10 12 14 12 6 3 6 23 23 22 21 17 16 13 10 6 3 0 2 2 1 3 4 4 5 7 8 10 11 12 14 16 17 17 16 15 14 14 16 15
5 4 3 2 4 4 2 1 4 6 8 4 8 6 2 10 17 28 27 22 19 17 16 14 10 6 2 1 2 4 5 6 7 7 7 8 9 11 13 15 18 19 20 20 19 19 19 20 19
4 3 1 1 4 4 5 4 3 4 6 5 4 6 4 5 31 31 29 27 26 24 21 17 14 11 4 2 2 5 5 6 6 7 8 9 9 9 12 14 18 20 23 23 23 22 21 23 21
4 3 0 3 1 3 7 3 1 3 6 4 3 7 14 21 28 26 24 23 22 23 22 20 18 15 12 12 0 3 3 6 6 5 7 8 9 8 9 12 15 19 23 26 25 25 25 25 24
4 4 6 5 1 0 4 5 2 4 6 5 8 9 20 26 26 23 20 19 23 23 24 23 20 17 14 16 11 3 2 2 2 6 6 4 4 5 4 7 12 15 19 23 25 26 27 26 26
2 5 5 4 3 3 2 4 6 8 5 6 13 9 10 20 20 21 20 23 22 22 24 24 21 19 17 12 11 10 5 6 8 8 7 7 4 5 7 9 12 13 14 13 17 19 21 24 26
3 7 5 4 4 2 2 1 5 3 5 11 9 10 11 14 12 17 19 21 21 22 23 23 21 22 20 17 14 11 11 9 11 13 13 12 11 12 12 14 14 15 17 17 18 18 18 19 18
2 5 3 3 5 4 5 2 4 2 7 9 12 15 15 14 17 21 22 20 18 20 19 20 18 19 19 20 17 16 15 15 15 15 16 16 15 16 14 11 12 14 16 17 17 17 16 14 9
5 5 6 2 5 3 5 6 5 4 9 10 14 12 12 14 17 22 22 18 17 15 16 16 18 17 16 19 17 18 17 18 19 19 19 17 17 16 14 11 13 14 14 13 13 13 13 12 6
5 6 7 7 4 5 6 5 9 7 11 11 11 13 13 11 19 21 24 20 15 15 14 17 18 19 18 18 19 18 17 17 19 19 19 20 20 18 16 15 16 15 14 12 11 11 9 9 11
3 3 3 5 2 7 10 8 8 7 17 11 12 11 12 9 17 25 26 25 17 15 15 15 15 17 19 20 19 18 19 18 19 19 20 21 20 20 18 18 18 16 14 14 13 14 13 11 10
2 3 5 9 6 5 6 8 7 3 15 15 13 12 12 10 13 23 26 23 17 16 16 16 13 14 14 17 20 21 21 21 22 21 21 21 20 18 18 18 18 17 16 16 17 14 15 15 16
6 4 4 5 5 5 2 5 3 3 16 17 13 11 12 12 12 22 26 23 19 16 15 15 13 11 12 14 20 19 22 18 20 21 20 19 19 18 17 18 19 19 19 19 19 18 14 12 19
1 2 6 5 5 2 6 6 10 5 3 6 10 12 12 12 13 22 25 24 21 17 15 15 13 11 9 11 11 16 19 16 18 19 18 17 18 18 19 19 20 20 20 19 20 22 21 14 21
7 9 8 5 4 1 6 7 8 5 6 8 13 12 14 12 13 17 23 21 18 19 17 17 16 13 12 11 11 11 8 14 15 15 17 17 17 18 18 19 20 19 18 19 20 21 20 11 20
7 7 4 6 4 2 3 8 5 5 4 6 13 20 18 20 17 12 16 22 20 17 18 18 16 14 13 12 11 12 10 13 17 18 16 18 18 19 19 18 17 17 18 19 18 18 19 15 13
13 8 5 2 3 3 3 9 4 5 9 6 9 17 17 16 13 10 16 18 20 19 18 18 15 14 13 12 14 16 17 14 15 14 15 18 19 22 21 20 19 18 17 16 15 14 15 15 15
8 5 4 4 4 1 4 1 1 5 7 6 8 13 15 15 15 14 17 23 22 22 19 18 17 15 13 13 14 14 17 15 13 14 16 18 20 22 21 20 19 19 17 15 15 15 14 13 12
3 5 5 4 3 4 7 7 13 5 5 2 7 14 17 15 15 13 18 23 23 23 20 17 17 15 12 13 13 14 14 14 15 16 18 18 19 21 21 20 19 18 17 16 15 13 13 14 13
2 6 1 2 1 8 7 7 11 9 10 8 16 19 19 16 13 14 13 16 23 23 20 18 14 13 11 12 13 13 14 14 16 17 17 18 19 21 20 20 21 21 17 16 15 16 16 15 13
8 8 6 6 4 4 5 5 3 1 10 6 8 11 10 10 12 13 15 18 22 23 20 16 14 13 11 10 11 11 12 14 15 15 15 15 15 17 17 18 20 20 20 19 17 17 16 15 15
5 9 8 5 0 0 4 4 1 9 14 18 16 15 12 9 7 7 9 13 19 22 20 16 14 12 11 10 9 11 11 12 12 13 13 14 14 13 16 17 20 20 20 20 19 18 18 16 16
7 6 4 1 5 5 5 4 5 4 5 7 13 15 13 10 12 12 12 14 17 20 20 17 14 13 10 8 8 9 8 9 10 11 12 13 13 14 16 17 19 19 20 20 19 21 20 20 20
2 1 3 4 4 4 2 5 5 6 8 8 7 9 14 15 15 17 21 23 27 26 24 21 16 14 10 7 8 8 7 7 7 10 11 12 12 12 15 17 19 20 21 20 18 18 22 22 21
6 4 5 3 4 1 3 5 5 5 7 11 11 12 16 16 16 15 20 20 21 22 23 20 19 14 12 11 11 11 9 8 8 10 10 10 12 13 16 18 21 21 21 19 18 20 21 22 22
Wind_Direction
333 337 333 78 52 61 293 306 233 25 75 54 75 81 90 66 61 154 149 174 164 155 149 146 144 144 145 145 147 150 153 156 159 158 151 149 147 148 151 156 163 169 168 163 162 162 164 167 168
330 349 40 90 83 49 291 264 112 103 99 114 89 91 65 62 37 89 109 135 152 145 146 145 148 146 143 143 147 151 155 162 168 173 178 177 180 179 180 179 181 186 190 189 192 192 188 184 184
333 22 78 87 100 163 225 250 196 75 99 128 82 53 72 116 42 59 129 124 127 133 141 147 151 144 132 130 135 147 157 169 180 191 199 205 207 208 210 209 203 204 211 211 213 217 215 213 209
337 11 36 84 210 264 209 237 213 130 84 97 113 56 42 76 68 126 121 116 104 109 118 138 157 151 132 125 131 150 169 182 197 214 223 222 228 231 228 231 225 220 220 222 227 232 231 230 229
26 63 54 49 274 279 257 211 157 102 90 104 105 111 72 70 116 114 106 100 93 91 98 122 141 146 151 153 156 153 149 204 231 237 238 238 236 239 243 243 243 239 232 229 227 239 248 247 246
29 90 46 328 302 286 299 308 88 87 110 108 83 90 89 111 112 103 108 96 94 96 93 95 90 71 171 230 233 233 243 244 248 249 249 248 251 250 249 251 252 250 246 238 230 230 237 250 254
118 90 212 223 262 322 285 10 46 107 136 110 142 106 146 59 86 101 101 100 91 90 86 74 66 56 43 234 278 260 261 262 263 261 258 258 258 258 256 255 255 257 255 251 243 235 237 242 250
109 100 322 257 293 270 339 79 137 52 71 100 118 143 128 99 109 101 92 85 79 74 75 66 63 63 45 317 236 229 260 273 274 276 279 277 273 270 274 275 271 269 264 259 255 250 246 249 251
103 50 0 260 243 291 339 114 346 33 73 50 56 103 122 112 107 93 82 72 65 58 52 49 49 54 60 46 9 250 288 299 294 288 279 273 277 277 283 283 283 279 277 273 268 263 256 252 251
111 132 216 216 244 320 359 28 340 93 77 74 89 84 107 99 92 83 73 64 52 40 39 41 44 44 47 55 58 39 44 41 354 343 330 318 315 293 277 290 285 283 278 277 278 271 267 265 263
180 201 197 240 193 177 73 21 324 123 127 181 146 129 93 88 86 89 82 73 60 48 42 37 42 45 46 50 57 62 71 57 36 23 19 37 40 19 11 345 329 338 333 310 287 280 278 276 270
296 244 187 191 207 143 168 116 345 355 174 152 141 125 104 88 82 95 94 79 64 54 48 43 46 48 50 53 63 67 80 76 49 45 40 34 30 19 17 360 4 350 346 340 346 334 317 309 272
213 332 353 3 153 202 151 234 223 111 132 129 117 111 109 107 100 92 87 74 61 50 43 48 50 53 57 51 54 61 66 65 55 44 36 28 25 23 18 11 10 355 350 356 358 349 343 341 349
301 305 313 245 258 226 189 218 140 161 152 137 121 114 114 115 118 106 98 89 75 64 54 58 60 62 71 69 68 69 64 59 50 42 36 31 29 29 26 26 17 13 11 9 12 4 3 352 336
297 329 340 271 202 228 157 275 222 193 163 141 127 126 124 124 122 118 119 110 103 87 80 71 66 65 77 74 78 86 71 59 52 45 39 36 34 32 29 25 16 13 6 3 359 350 352 334 328
24 31 323 274 214 244 140 253 248 196 160 159 148 142 135 128 124 124 121 117 110 97 85 89 82 77 75 70 78 82 74 68 61 50 42 36 36 33 29 26 19 12 9 5 6 2 355 355 346
350 219 218 309 213 208 158 233 232 251 168 164 164 151 140 126 108 121 123 121 114 104 98 91 87 84 86 84 79 90 81 71 61 54 46 41 41 35 36 28 20 14 12 9 2 358 358 351 337
202 206 230 250 310 68 261 225 213 218 159 172 168 147 145 135 135 131 128 124 117 107 100 93 86 80 87 102 88 95 82 73 57 56 48 43 42 36 33 26 20 17 12 8 1 356 351 356 341
278 221 256 253 267 300 209 245 259 212 324 121 168 153 154 144 143 136 131 126 120 119 107 88 89 80 77 91 88 77 69 64 53 49 44 38 36 29 23 19 12 11 12 7 5 358 356 359 354
240 250 260 274 245 289 277 238 247 258 208 199 169 166 162 147 148 143 134 129 129 124 110 102 91 89 80 89 97 103 99 67 61 52 46 35 28 25 20 14 14 15 13 8 7 5 4 352 5
228 204 220 233 313 331 295 264 187 248 239 272 179 178 169 161 154 150 137 139 139 129 120 108 96 91 89 94 117 121 106 67 51 47 48 40 29 29 28 26 26 27 24 19 14 5 6 353 345
241 199 192 197 90 231 68 287 156 235 259 235 166 171 169 161 152 143 141 149 142 132 122 108 102 91 85 86 89 88 86 81 63 57 48 45 42 33 36 35 34 31 25 19 12 4 1 353 345
241 210 146 143 138 186 171 230 50 340 289 246 170 170 167 162 155 156 156 153 141 135 122 108 99 88 83 82 82 86 83 79 72 62 58 53 49 42 41 39 36 33 27 20 14 10 5 357 346
152 97 54 55 100 270 167 173 286 230 242 284 169 170 168 162 160 149 149 145 133 131 119 108 95 86 76 73 74 77 77 73 67 61 59 54 50 46 43 42 37 32 27 25 25 20 15 10 360
130 106 278 310 156 241 178 213 242 296 318 185 185 183 178 158 143 137 139 138 134 132 121 104 103 97 86 78 76 73 72 70 69 64 58 56 49 45 44 45 38 33 37 39 35 32 24 17 13
199 161 163 196 204 249 189 230 186 312 34 52 93 93 107 118 132 145 153 150 140 134 125 119 117 114 99 83 79 72 73 71 68 66 59 59 59 49 45 46 43 43 47 47 46 34 29 22 18
190 207 176 157 88 43 231 302 88 49 57 73 75 82 88 81 79 72 107 126 131 130 125 123 119 110 104 90 71 69 62 66 63 68 61 54 53 50 49 47 46 49 49 50 45 33 32 29 26
163 168 92 23 179 227 257 215 191 97 100 109 123 122 127 129 128 136 130 140 132 131 130 130 124 119 118 104 77 69 61 60 56 59 59 57 51 42 50 48 46 53 52 50 42 36 33 32 27
113 244 35 127 155 177 228 254 189 157 160 170 171 152 156 162 160 172 174 156 151 146 147 144 140 142 138 125 111 104 81 62 64 67 62 62 66 44 48 52 49 53 51 48 40 37 35 31 24
64 36 23 84 286 189 130 275 233 184 186 167 186 192 190 178 177 168 157 152 149 150 147 150 152 143 140 132 127 112 92 88 88 91 65 61 65 49 49 55 54 52 48 49 42 37 36 32 24